Volver al catálogo

SL-8 R/B

ActivoPO
NORAD 10461·ROCKET BODY·🇷🇺 Russia

Lanzado Oct 28, 1977 desde Plesetsk Cosmodrome

Loading…

Próximos Pases (próximas 24 horas)

TLE

ActualizadoSource: Space-Track

Época: Sep 14, 2026, 07:54 UTC

1 10461U 77107B   26257.32970433  .00000094  00000-0  79115-4 0  9997
2 10461  82.9510  26.5329 0034367  59.6671 329.7196 13.77156011455107

Sigue SL-8 R/B en tiempo real con AllMySat

Download on the App Store